Winnerscup USA - loft fly

Station: Loft Fly - T Race

Distance: 1 Miles

Release: 16-May-2018 08:15

Weather Release:    Arrival:

Wind at Release:     Wind at Arrival:

Temp at Release: °    Temp at Arrival: °

Lofts: 53

Birds: 54

Clocked: 54

Good Luck to Everyone!
Drops Pos Breeder Pigeon Name Color Sex Ent Arrival Speed To Win Eligible AB
1 Larry Lewis - OK 8146-AU17-TRPC No Exemption BC C 1 09:12:36.00 30.556 00:00:00 Yes
2 Sofija Loft - IL 0011-AU17-BEKO Ludacris BBPD C 1 09:12:38.00 30.538 00:00:02 Yes
3 Dal-Tex R P C - TX 0448-AU17-DLLS Esmeralda BC H 1 09:12:39.00 30.529 00:00:03 Yes
4 Bieche-Stevenson - CA 7477-AU17-BIEC Second Opinion BB C 1 09:12:41.00 30.511 00:00:05 Yes
5 Acre Farms - CA 0346-AU17-GENE Take 5 BC C 1 09:12:44.00 30.485 00:00:08 Yes
6 Champ Camp - IN 0225-AU17-CHMP Point Well Taken BB C 1 09:12:47.00 30.459 00:00:11 Yes
7 Hollywood Lou Loft - FL 0064-AU17-LOU American South BB C 1 09:12:51.00 30.424 00:00:15 Yes
8 Sarrett Racing Pigeons - TX 7048-AU17-PPH Target' BB H 1 09:13:08.00 30.275 00:00:32 Yes
9 P/R Loft - CA 0282-AU17-GSF Mezmerise BB H 1 09:13:14.00 30.223 00:00:38 Yes
10 Daehn/Miele - FL 0402-AU17-NWFI Scheckles BB C 1 09:13:17.00 30.197 00:00:41 Yes
11 A D L Sheila - IL 0225-AU17-ADL Outlaw Josey Wells BCW C 1 09:13:18.00 30.189 00:00:42 Yes
12 A B C Loft2 - NY 11771-AU17-ARPU Etherium BB C 1 09:13:23.00 30.146 00:00:47 Yes
13 Daehn/Miele - FL 3837-AU17-FOYS French Braid BB H 2 09:13:31.00 30.077 00:00:55 Yes
14 Dream Team - VT 0576-AU17-JCZL Maze Runner BB C 1 09:13:34.00 30.051 00:00:58 Yes
14 Ojibwe Loft - OK 0042-AU17-OJIB Desert Wren BC H 1 09:13:34.00 30.051 00:00:58 Yes
16 Tanai Kantisiri - CA 2928-AU17-COM Platinum BB C 1 09:13:37.00 30.026 00:01:01 Yes
17 A B C Loft2 - NY 59759-AU17-ARPU Cleopatra BC H 2 09:13:41.00 29.991 00:01:05 Yes
18 Walstons Warriors - NC 7410-AU17-GL Dullah Bhati BB C 1 09:13:52.00 29.898 00:01:16 Yes
19 G & L Loft - OR 2394-AU17-WPC Affirmation BB C 1 09:13:58.00 29.847 00:01:22 Yes
20 Ken Easley-Silvercreek - NM 5151-AU17-ESLY Urban Kone BB C 1 09:14:06.00 29.780 00:01:30 Yes
21 Hollywood Lou Loft - FL 0063-AU17-LOU The Celebrity BB C 2 09:14:15.00 29.705 00:01:39 Yes
22 Daehn/Miele - FL 0401-AU17-NWFI Super Man BB C 3 09:14:17.00 29.688 00:01:41 Yes
23 P/R Loft - CA 0279-AU17-GSF Desciple BCW C 2 09:14:18.00 29.680 00:01:42 Yes
24 Tanai Kantisiri - CA 2929-AU17-COM Prelude BB H 2 09:14:23.00 29.638 00:01:47 Yes
25 Tar Syndicate - PA 7976-AU17-TAR Game to Win DC C 1 09:14:24.00 29.630 00:01:48 Yes
26 Prout Loft - CA 28550-AU17-JEDD TABLOID BC C 1 09:14:30.00 29.580 00:01:54 Yes
27 Bolgar Loft - CA 7650-AU17-FTST Red Dawn RC H 1 09:14:40.00 29.497 00:02:04 Yes
28 A B C Loft2 - NY 59780-AU17-ARPU National Asset BB C 3 09:14:44.00 29.464 00:02:08 Yes
29 Team Fujitake - HI 13911-AU17-FOYS Blue Hilo BBWF H 1 09:15:07.00 29.276 00:02:31 Yes
30 Daehn/Miele - FL 3832-AU17-FOYS Redefined Exit BC C 4 09:15:13.00 29.228 00:02:37 Yes
31 Jack's Loft - CA 36711-AU17-ARPU Alamaar RGRZ H 1 09:17:17.00 28.258 00:04:41 Yes
32 Daehn/Miele - FL 3831-AU17-FOYS Kaapi BC C 5 09:17:20.00 28.235 00:04:44 Yes
33 A P C Loft - TX 17353-AU17-APC Miss HighTower BB H 1 09:17:34.00 28.130 00:04:58 Yes
34 Tar Syndicate - PA 12035-AU17-LLP Syndicate BC H 2 09:17:36.00 28.115 00:05:00 Yes
35 G & L Loft - OR 2392-AU17-WPC American Standard BWFP C 2 09:17:43.00 28.063 00:05:07 Yes
36 Champ Camp - IN 0275-AU17-CHMP Scirrocco BB H 2 09:18:20.00 27.789 00:05:44 Yes
37 Huan Qiu Zhang - NC 1709-AU17-JNC Kryto Run BB C 1 09:19:00.00 27.500 00:06:24 Yes
38 Daehn/Miele - FL 3836-AU17-FOYS Lasting Impression BB C 6 09:19:38.00 27.231 00:07:02 Yes
39 John Partridge - CA 0619-AU17-PASO Moon Twister BC H 1 09:19:50.00 27.147 00:07:14 Yes
40 Canto & Wiltz - MA 10998-AU17-AA Orbitaar BB C 1 09:20:30.00 26.870 00:07:54 Yes
41 A P C Loft - TX 17377-AU17-APC Tantric Sleeper SMOK H 2 09:22:16.00 26.165 00:09:40 Yes
42 Nesneb Racing Loft - AL 17146-AU17-MOB Done That BBWF C 1 09:22:51.00 25.940 00:10:15 Yes
43 Sienna Loft - NC 36811-AU17-AA Big Blue BB C 1 09:22:55.00 25.914 00:10:19 Yes
44 Sextons Loft - IA 31762-AU17-AA Ladesma BC H 1 09:23:20.00 25.756 00:10:44 Yes
45 Sextons Loft - IA 31763-AU17-AA New Apollo BC C 2 09:24:53.00 25.185 00:12:17 Yes
46 Ganus Family Loft - IN 0292-AU17-GFL Planet Icon BC H 1 10:02:10.00 16.423 00:49:34 Yes
47 Ken Easley-Silvercreek - NM 5156-AU17-ESLY Leanna BCW H 2 10:02:14.00 16.413 00:49:38 Yes
48 Goshentown Lofts - TN 1796-AU17-NPA Dossier 96 BB H 1 10:02:21.00 16.395 00:49:45 Yes
49 Nesler Boyz - CA 1764-AU17-TCH Tag Me Sold BB H 1 10:02:24.00 16.387 00:49:48 Yes
50 Ganus Family Loft - IN 0223-AU17-GFL Meteor Man DCWP C 2 10:02:26.00 16.382 00:49:50 Yes
51 Nesler Boyz - CA 1800-AU17-TCH Destined Choice RGRI H 2 10:02:27.00 16.380 00:49:51 Yes
52 Bolgar Loft - CA 7641-AU17-FTST KID KIEV CP C 2 10:58:13.00 10.783 01:45:37 Yes
53 Joe Zarachowicz - MD 2284-AU17-CCC Never Too Late GR C 1 11:03:54.00 10.420 01:51:18 Yes
54 Ganus Family Loft - IN 0955-AU17-GFL Spritz BC C 3 12:48:56.00 6.425 03:36:20 Yes

There are 262 bird records

Note: These Race Results are unofficial and subject to change until verified by the Race Committee and declared final.